Вернуться в каталог

COSMOS 1275 DEB

АктивенPO
NORAD 13467·DEBRIS·🇷🇺 Russia

Запущен Jun 4, 1981 с Plesetsk Cosmodrome

Loading…

Ближайшие Пролёты (ближайшие 24 часа)

TLE

СвежийSource: Space-Track

Эпоха: Sep 14, 2026, 11:38 UTC

1 13467U 81053FP  26257.48483498  .00004332  00000-0  92321-3 0  9990
2 13467  82.9400 150.9474 0017281 350.3422 184.4092 14.58687405302230

Отслеживайте COSMOS 1275 DEB в реальном времени с AllMySat

Download on the App Store